Regional Weather Roundup
Issued by NWS

Home | Current Version | Previous Version | Graphics & Text | Print | Product List | Glossary On
Versions: 1 2 3 4 5 6 7 8 9 10 11 12 13 14 15 16 17 18 19 20 21 22 23 24 25 26 27 28 29 30 31 32 33 34 35 36 37 38 39 40 41 42 43 44 45 46 47 48 49 50
000
ASUS45 KPSR 050810
RWRAZ

ARIZONA HOURLY REGIONAL WEATHER ROUNDUP
NATIONAL WEATHER SERVICE PHOENIX AZ
100 AM MST SUN JUL 05 2015

NOTE: FAIR INDICATES FEW OR NO CLOUDS BELOW 12,000 FEET WITH NO
SIGNIFICANT WEATHER AND/OR OBSTRUCTIONS TO VISIBILITY.

AZZ001>003-036-050900-
NORTHWEST ARIZONA

CITY           SKY/WX    TMP DP  RH WIND       PRES   REMARKS
BULLHEAD CITY  PTCLDY    99  50  19 S14       29.75R
KINGMAN        CLEAR     79  51  37 SW10      29.97F
$$

AZZ004>008-015-016-018-050900-
NORTH CENTRAL ARIZONA

CITY           SKY/WX    TMP DP  RH WIND       PRES   REMARKS
GRAND CANYON   PTCLDY    56  52  86 CALM      30.22F
WILLIAMS       MOCLDY    61  55  82 SE6       30.30S
PRESCOTT       CLOUDY    71  56  58 SE5       30.12S
FLAGSTAFF      PTCLDY    56  55  97 CALM      30.27S
PAYSON         PTCLDY    64  57  77 N5        30.15S
PAGE           MOCLDY    81  52  36 S6        30.00S
$$

AZZ009>014-017-050900-
NORTHEAST ARIZONA

CITY           SKY/WX    TMP DP  RH WIND       PRES   REMARKS
WINSLOW        MOCLDY    65  61  87 SE7       30.12S
SAINT JOHNS    MOCLDY    63  60  90 SE5       30.17F
WINDOW ROCK    CLOUDY    62  57  83 CALM      30.23F
SHOW LOW       MOCLDY    57  54  88 S3        30.22S
$$

AZZ023-050900-
GREATER PHOENIX AREA

CITY           SKY/WX    TMP DP  RH WIND       PRES   REMARKS
PHOENIX        MOCLDY    95  56  26 W12       29.81S
LUKE AFB       PTCLDY    90  57  33 SW12      29.81R
DEER VALLEY    CLEAR     88  58  36 CALM      29.84R
SCOTTSDALE     PTCLDY    91  58  32 CALM      29.85S
MESA-GATEWAY   CLOUDY    90  59  35 W10       29.86R
$$

AZZ027-028-050900-
SOUTHWEST MARICOPA COUNTY AND PINAL COUNTY

CITY           SKY/WX    TMP DP  RH WIND       PRES   REMARKS
CASA GRANDE    CLOUDY    91  57  31 W5        29.84S
GILA BEND      FAIR      90  57  33 SW7       29.81S
$$

AZZ503-504-507>509-050900-
SOUTHEAST ARIZONA

CITY           SKY/WX    TMP DP  RH WIND       PRES   REMARKS
TUCSON         MOCLDY    84  57  39 CALM      29.97S
DAVIS-MONTHAN  MOCLDY    83  59  44 SW6       29.96R
NOGALES        CLOUDY    76  58  53 SE8       30.07S
SIERRA VISTA   CLOUDY    69  60  75 S13       30.14F
DOUGLAS        HVY RAIN  68  66  93 S7        30.13S FOG
SAFFORD        MOCLDY    82  63  52 S7        29.97S
$$

AZZ020-021-025-026-031-050900-
SOUTHWEST ARIZONA

CITY           SKY/WX    TMP DP  RH WIND       PRES   REMARKS
YUMA           CLEAR     88  68  51 SE20      29.74F
$$

CAZ031-033-041-043-047-048-061-050900-
SOUTHERN CALIFORNIA

CITY           SKY/WX    TMP DP  RH WIND       PRES   REMARKS
DOWNTOWN L.A.  CLOUDY    64  59  83 CALM      29.94S
L.A. AIRPORT   CLOUDY    63  59  87 VRB3      29.94F
SAN DIEGO      MOCLDY    67  58  72 W7        29.95F
BURBANK        CLEAR     63  58  83 S5        29.94S
ONTARIO        CLEAR     65  58  78 W5        29.94S HAZE
RIVERSIDE      CLEAR     65  58  78 W5        29.94F
PALM SPRINGS   CLEAR     88  56  33 CALM      29.81R
EL CENTRO NAS  CLEAR     85  68  56 SE6       29.75S
IMPERIAL       CLEAR     89  68  49 SE12      29.72S
BLYTHE         CLEAR     91  62  37 S9        29.76R
NEEDLES        PTCLDY    98  49  18 SW13      29.76R
$$

NVZ020-UTZ003-050900-
SOUTHERN NEVADA-UTAH

CITY           SKY/WX    TMP DP  RH WIND       PRES   REMARKS
LAS VEGAS      PTCLDY    91  50  24 S8        29.79S
SALT LAKE CITY CLOUDY    79  58  48 SE6       29.94S
$$

NMZ009-TXZ055-050900-
NEW MEXICO-WEST TEXAS

CITY           SKY/WX    TMP DP  RH WIND       PRES   REMARKS
ALBUQUERQUE    MOCLDY    69  58  67 S5        30.13F
EL PASO        CLOUDY    75  64  68 N9        30.03S
$$


........................KEY........................
SKY/WX - SKY CONDITION/WEATHER
TMP    - TEMPERATURE IN FAHRENHEIT
DP     - DEW POINT IN FAHRENHEIT
RH     - RELATIVE HUMIDITY IN PERCENT
WIND   - DIRECTION AND SPEED IN MILES PER HOUR (MPH)
VRB    - VARIABLE WIND DIRECTION
PRES   - MEAN SEA LEVEL PRESSURE IN INCHES OF MERCURY
         F - FALLING PRESSURE   R - RISING PRESSURE
         S - STEADY PRESSURE
VSB    - VISIBILITY IN MILES
HX     - HEAT INDEX IN FAHRENHEIT
WCI    - WIND CHILL INDEX IN FAHRENHEIT
TC     - TEMPERATURE IN CELSIUS WHICH IS ALSO KNOWN AS
         TEMPERATURE IN CENTIGRADE
AFB    - AIR FORCE BASE
         LUKE AFB IS LUKE AIR FORCE BASE
         DAVIS-MONTHAN IS DAVIS-MONTHAN AIR FORCE BASE
NAS    - NAVAL AIR STATION
         EL CENTRO NAS IS EL CENTRO NAVAL AIR STATION
N/A    - NOT AVAILABLE



USA.gov is the U.S. government's official web portal to all federal, state and local government web resources and services.